Location: Oroua River
(40.4333°S, 175.4333°E)
Time: 14:31:14
(UTC+00:00)

Cosmos 1110 Rocket - Pass Details

Date: 03 February 2023
Orbit: 753 x 779 km, 74.0° (Epoch: 23 March)

Event Time Altitude Azimuth Distance (km) Brightness Sun altitude
Rises 15:48:29 0° 204° (SSW) 3,269 7.5 -17.1°
Reaches altitude 10° 15:50:54 10° 207° (SSW) 2,340 6.7 -16.8°
Maximum altitude 15:56:07 58° 285° (WNW) 906 4.1 -16.0°
Drops below altitude 10° 16:01:18 10° 3° (N) 2,326 6.2 -15.2°
Enters shadow 16:03:18 - 6° (N) 3,091 6.8 -14.9°
